Wichita, KS

6:24 PM CST on January 19, 2017 (GMT -0600)
Col Jabara

Weather History for KAAO - February, 2013

Change the Weather History Date:

Thursday, February 28, 2013

  Actual Average (KIAB) Record (KIAB)
Temperature  
Mean Temperature 30 °F -  
Max Temperature 34 °F 47 °F 78 °F (2006)
Min Temperature 26 °F 27 °F 10 °F (2009)
Degree Days  
Heating Degree Days 35    
Moisture  
Dew Point 25 °F    
Average Humidity 77    
Maximum Humidity 82    
Minimum Humidity 72    
Precipitation  
Precipitation 0.00 in - - ()
Sea Level Pressure  
Sea Level Pressure 30.24 in    
Wind  
Wind Speed 12 mph (NNW)    
Max Wind Speed 17 mph    
Max Gust Speed -    
Visibility 10 miles    
Events      
Averages and records for this station are not official NWS values.
T = Trace of Precipitation, MM = Missing Value Source: NWS Daily Summary

Daily Weather History Graph

Daily Weather History Graph

Search for Another Location

Airport or City:

Trip Planner

Search our weather history database for the weather conditions in past years. The results will help you decide how hot, cold, wet, or windy it might be!

Date:

Astronomy

Feb. 28, 2013 Rise Set
Actual Time 7:01 AM CST 6:21 PM CST
Civil Twilight 6:35 AM CST 6:48 PM CST
Nautical Twilight 6:04 AM CST 7:18 PM CST
Astronomical Twilight 5:34 AM CST 7:49 PM CST
Moon 9:45 PM CST (2/28) 8:15 AM CST (2/28)
Length of Visible Light 12h 13m
Length of Day
11h 20m
Waning Gibbous, 90% of the Moon is Illuminated
Feb 28
Waning Gibbous
Mar 4
Last Quarter
Mar 11
New
Mar 19
First Quarter
Mar 27
Full

Hourly Weather History & Observations

Time (CST) Temp. Windchill Dew Point Humidity Pressure Visibility Wind Dir Wind Speed Gust Speed Precip Events Conditions
12:54 AM 28.9 °F 18.6 °F 24.1 °F 82% 30.19 in 10.0 mi NW 12.7 mph - N/A   Clear
1:54 AM 28.0 °F 18.6 °F 23.0 °F 81% 30.20 in 10.0 mi WNW 10.4 mph - N/A   Clear
3:54 AM 26.1 °F 15.6 °F 21.0 °F 81% 30.21 in 10.0 mi WNW 11.5 mph - N/A   Clear
4:34 AM 26.6 °F 16.8 °F 21.2 °F 80% 30.16 in 10.0 mi WNW 10.4 mph - N/A   Mostly Cloudy
4:54 AM 26.1 °F 16.2 °F 21.0 °F 81% 30.21 in 10.0 mi WNW 10.4 mph - N/A   Overcast
6:54 AM 28.0 °F 19.3 °F 23.0 °F 81% 30.22 in 10.0 mi NW 9.2 mph - N/A   Overcast
8:54 AM 30.9 °F 20.7 °F 25.0 °F 79% 30.24 in 10.0 mi NNW 13.8 mph - N/A   Overcast
9:54 AM 32.0 °F 22.1 °F 26.1 °F 79% 30.25 in 10.0 mi NW 13.8 mph - N/A   Overcast
10:54 AM 33.1 °F 22.6 °F 26.1 °F 75% 30.25 in 10.0 mi NNW 16.1 mph - N/A   Overcast
11:54 AM 34.0 °F 23.4 °F 26.1 °F 73% 30.26 in 10.0 mi North 17.3 mph - N/A   Overcast
12:54 PM 34.0 °F 24.6 °F 26.1 °F 73% 30.26 in 10.0 mi NNW 13.8 mph - N/A   Overcast
1:54 PM 34.0 °F 24.6 °F 26.1 °F 73% 30.25 in 10.0 mi NNW 13.8 mph - N/A   Overcast
3:54 PM 33.1 °F 23.9 °F 26.1 °F 75% 30.25 in 10.0 mi North 12.7 mph - N/A   Overcast
4:54 PM 33.1 °F 23.9 °F 26.1 °F 75% 30.25 in 9.0 mi NNW 12.7 mph - N/A   Overcast
5:54 PM 33.1 °F 26.1 °F 26.1 °F 75% 30.25 in 10.0 mi NNW 8.1 mph - N/A   Overcast
6:54 PM 33.1 °F 26.9 °F 25.0 °F 72% 30.26 in 10.0 mi NNW 6.9 mph - N/A   Overcast
8:54 PM 33.1 °F 26.1 °F 26.1 °F 75% 30.26 in 10.0 mi NNW 8.1 mph - N/A   Overcast
9:54 PM 33.1 °F 24.4 °F 25.0 °F 72% 30.27 in 10.0 mi North 11.5 mph - N/A   Overcast
10:54 PM 32.0 °F 22.1 °F 25.0 °F 75% 30.26 in 10.0 mi North 13.8 mph - N/A   Overcast
11:54 PM 30.9 °F 21.2 °F 25.0 °F 79% 30.26 in 10.0 mi North 12.7 mph - N/A   Overcast